Location: Pianadetto
(44.4000°N, 10.1000°E)
Time: 21:06:57
(UTC+00:00)

Cosmos 1271 Rocket - Pass Details

Date: 26 May 2022
Orbit: 495 x 539 km, 81.2° (Epoch: 03 July)

Event Time Altitude Azimuth Distance (km) Brightness Sun altitude
Rises 02:25:34 0° 338° (NNW) 2,627 6.6 -11.6°
Reaches altitude 10° 02:27:53 10° 327° (NNW) 1,743 5.5 -11.3°
Maximum altitude 02:31:11 28° 268° (W) 993 3.7 -10.9°
Enters shadow 02:33:40 15° 216° (SW) 1,470 4.4 -10.5°
